Weather History for KHIB - August, 2014

Change the Weather History Date:

Wednesday, August 13, 2014

  Actual Average Record
Temperature  
Mean Temperature 60 °F -  
Max Temperature 75 °F 74 °F 91 °F (1970)
Min Temperature 46 °F 52 °F 32 °F (2004)
Degree Days  
Heating Degree Days 6    
Growing Degree Days 10 (Base 50)    
Moisture  
Dew Point 51 °F    
Average Humidity 79    
Maximum Humidity 100    
Minimum Humidity 38    
Precipitation  
Precipitation 0.00 in - - ()
Sea Level Pressure  
Sea Level Pressure 30.09 in    
Wind  
Wind Speed 3 mph (North)    
Max Wind Speed 12 mph    
Max Gust Speed -    
Visibility 6 miles    
Events Fog    
Averages and records for this station are not official NWS values.
T = Trace of Precipitation, MM = Missing Value Source: NWS Daily Summary

Daily Weather History Graph

Daily Weather History Graph

Search for Another Location

Airport or City:

Trip Planner

Search our weather history database for the weather conditions in past years. The results will help you decide how hot, cold, wet, or windy it might be!

Date:

Astronomy

Aug. 13, 2014 Rise Set
Actual Time 6:05 AM CDT 8:26 PM CDT
Civil Twilight 5:31 AM CDT 9:00 PM CDT
Nautical Twilight 4:48 AM CDT 9:42 PM CDT
Astronomical Twilight 3:59 AM CDT 10:30 PM CDT
Moon 9:52 PM CDT (8/13) 9:51 AM CDT (8/13)
Length of Visible Light 15h 29m
Length of Day
14h 21m
Waning Gibbous, 87% of the Moon is Illuminated
Aug 13
Waning Gibbous
Aug 17
Last Quarter
Aug 25
New
Sep 2
First Quarter
Sep 8
Full

Hourly Weather History & Observations

Time (CDT) Temp. Dew Point Humidity Pressure Visibility Wind Dir Wind Speed Gust Speed Precip Events Conditions
1:53 AM 57.9 °F 55.9 °F 93% 30.01 in 10.0 mi NNW 5.8 mph - N/A   Clear
2:53 AM 57.9 °F 55.9 °F 93% 30.03 in 10.0 mi North 3.5 mph - N/A   Clear
3:43 AM 57.0 °F 55.0 °F 93% 30.05 in 1.8 mi NNW 3.5 mph - N/A   Clear
3:53 AM 57.0 °F 55.0 °F 93% 30.05 in 3.0 mi Calm Calm - N/A   Scattered Clouds
4:40 AM 53.1 °F 52.0 °F 96% 30.05 in 0.8 mi Calm Calm - N/A   Partly Cloudy
4:43 AM 53.1 °F 52.0 °F 96% 30.05 in 0.2 mi Calm Calm - N/A Fog Fog
4:53 AM 53.1 °F 52.0 °F 96% 30.06 in 0.5 mi NNE 3.5 mph - N/A Fog Fog
4:58 AM 52.0 °F 52.0 °F 100% 30.06 in 2.0 mi Calm Calm - N/A   Partly Cloudy
5:08 AM 53.1 °F 52.0 °F 96% 30.06 in 0.8 mi Calm Calm - N/A   Clear
5:22 AM 50.0 °F 48.0 °F 93% 30.06 in 0.2 mi Calm Calm - N/A Fog Fog
5:29 AM 53.1 °F 51.1 °F 93% 30.06 in 1.0 mi Calm Calm - N/A   Clear
5:32 AM 53.1 °F 52.0 °F 96% 30.06 in 4.0 mi Calm Calm - N/A   Clear
5:50 AM 51.8 °F 50.0 °F 94% 30.07 in 2.5 mi Calm Calm - N/A   Clear
5:53 AM 51.1 °F 50.0 °F 96% 30.08 in 5.0 mi Calm Calm - N/A   Clear
6:14 AM 46.9 °F 46.0 °F 97% 30.08 in 0.5 mi NW 3.5 mph - N/A Fog Fog
6:17 AM 46.9 °F 46.0 °F 97% 30.08 in 0.2 mi NW 3.5 mph - N/A Fog Fog
6:39 AM 50.0 °F 48.9 °F 96% 30.09 in 2.0 mi NNW 3.5 mph - N/A   Scattered Clouds
6:45 AM 50.0 °F 48.9 °F 96% 30.09 in 0.8 mi NNW 3.5 mph - N/A   Mist
6:59 AM 51.1 °F 50.0 °F 96% 30.09 in 3.0 mi Calm Calm - N/A   Clear
8:53 AM 64.0 °F 54.0 °F 70% 30.11 in 10.0 mi NNE 4.6 mph - N/A   Clear
10:53 AM 71.1 °F 51.1 °F 49% 30.13 in 10.0 mi Variable 6.9 mph - N/A   Clear
11:53 AM 73.0 °F 50.0 °F 44% 30.12 in 10.0 mi North 11.5 mph - N/A   Partly Cloudy
12:53 PM 73.0 °F 50.0 °F 44% 30.12 in 10.0 mi North - - N/A   Partly Cloudy
1:53 PM 73.0 °F 50.0 °F 44% 30.12 in 10.0 mi North 4.6 mph - N/A   Scattered Clouds
3:53 PM 73.9 °F 48.9 °F 41% 30.11 in 10.0 mi Variable 3.5 mph - N/A   Clear
4:53 PM 73.9 °F 46.9 °F 38% 30.11 in 10.0 mi NE 3.5 mph - N/A   Clear
5:53 PM 73.9 °F 48.9 °F 41% 30.11 in 10.0 mi North 10.4 mph - N/A   Clear
6:53 PM 72.0 °F 48.9 °F 44% 30.12 in 10.0 mi North 6.9 mph - N/A   Clear
7:53 PM 66.9 °F 51.1 °F 57% 30.11 in 10.0 mi NNE 3.5 mph - N/A   Clear
8:53 PM 59.0 °F 51.1 °F 75% 30.12 in 10.0 mi NE 3.5 mph - N/A   Clear
9:53 PM 52.0 °F 48.0 °F 86% 30.14 in 10.0 mi Calm Calm - N/A   Clear
11:53 PM 48.0 °F 46.0 °F 93% 30.15 in 10.0 mi NNW 3.5 mph - N/A   Clear